Flag for Germany Weather past 2 weeks in Wolfsburg, Lower Saxony, Germany

Now
50 °F

Cool.


Feels Like: 49 °F
Forecast: 46 / 60 °F
Wind: 3 mph from Southwest

Location: Celle Airport

Current Time: Oct 26, 2014 at 6:35:58 AM

Latest Report: Oct 26, 2014 at 5:20 AM


Visibility: N/A

Pressure: 30.24 "Hg

Humidity: 88%

Dew point: 46 °F

Location of WolfsburgLocation

Historic Weather in Wolfsburg — Graph

°F

Wolfsburg temperature yesterday

Maximum temperature yesterday: 55 °F (at 2:20 PM)
Minimum temperature yesterday: 48 °F (at 2:20 AM)
Average temperature yesterday: 52 °F

Past Weeks' High & Low Weather Summary

 TemperatureHumidityPressure
High73 °F (Oct 19, 3:20 PM)100% (Oct 11, 7:20 AM)30.24 "Hg (Oct 11, 7:20 AM)
Low46 °F (Oct 17, 5:20 AM)52% (Oct 14, 2:20 PM)29.42 "Hg (Oct 21, 6:20 PM)
Average55 °F88%29.89 "Hg
* Reported Oct 11 6:20 AM — Oct 26 5:20 AM, Wolfsburg, Weather by CustomWeather, © 2014

Note: Actual official high and low records may vary slightly from our data, if they occured in-between our weather recording intervals... More about our weather records

Advertising

Wolfsburg weather history for previous 24 hours

 ConditionsComfort  
Time TempWeatherWind HumidityBarometerVisibility
5:20 AM
Oct 26
50 °FCool.3 mph88%30.24 "HgN/A
4:20 AM52 °FOvercast.6 mph88%30.21 "Hg6 mi
3:20 AM54 °FOvercast.7 mph82%30.21 "Hg5 mi
2:20 AM54 °FFog.7 mph94%30.18 "Hg3 mi
2:20 AM54 °FFog.2 mph94%30.18 "Hg3 mi
1:20 AM54 °FFog.2 mph94%30.18 "Hg3 mi
12:20 AM54 °FFog.1 mph94%30.18 "Hg3 mi
11:20 PM
Oct 25
52 °FFog.3 mph100%30.15 "Hg3 mi
10:20 PM52 °FPartly cloudy.2 mph94%30.15 "Hg5 mi
9:20 PM52 °FPartly cloudy.5 mph100%30.15 "Hg5 mi
8:20 PM54 °FPassing clouds.2 mph94%30.12 "Hg6 mi
7:20 PM54 °FPassing clouds.3 mph94%30.12 "Hg6 mi
6:20 PM55 °FBroken clouds.5 mph88%30.12 "Hg6 mi
5:20 PM55 °FBroken clouds.6 mph88%30.09 "Hg6 mi
4:20 PM55 °FOvercast.7 mph88%30.09 "Hg6 mi
3:20 PM55 °FOvercast.7 mph88%30.09 "Hg5 mi
2:20 PM55 °FOvercast.6 mph88%30.07 "Hg4 mi
1:20 PM54 °FOvercast.7 mph88%30.07 "Hg6 mi
12:20 PM54 °FOvercast.3 mph88%30.07 "HgN/A
11:20 AM52 °FOvercast.5 mph88%30.07 "Hg5 mi
10:20 AM52 °FPartly sunny.3 mph88%30.07 "Hg5 mi
9:20 AM50 °FPartly sunny.5 mph94%30.07 "HgN/A
8:20 AM48 °FPassing clouds.3 mph94%30.04 "Hg6 mi
7:20 AM48 °FPartly cloudy.3 mph94%30.04 "HgN/A
6:20 AM50 °FLight rain. Overcast.3 mph82%30.04 "HgN/A
Weather by CustomWeather, © 2014

See weather overviewHow to use our weather pages